Miscellaneous Local Product
Issued by NWS North Platte, NE

Home | Current Version | Previous Version | Text Only | Print | Product List | Glossary On
Versions: 1 2 3 4 5 6 7 8 9 10 11 12 13 14 15 16 17 18 19 20 21 22 23 24 25 26 27 28 29 30 31 32 33 34 35 36 37 38 39 40 41 42 43 44 45 46 47 48 49 50
365
AXUS43 KLBF 190910
MISLBF


WESTERN AND NORTH CENTRAL NEBRASKA HOURLY WEATHER ROUNDUP
NATIONAL WEATHER SERVICE NORTH PLATTE NE
300 AM CST THU JAN 19 2017

NOTE: "FAIR" INDICATES FEW OR NO CLOUDS BELOW 12,000 FEET WITH NO
SIGNIFICANT WEATHER AND/OR OBSTRUCTIONS TO VISIBILITY.

NOTE: STATIONS NOT REPORTING VARIABLES SUCH AS SKY/WEATHER OR
PRESSURE ARE PROVIDED BY RAWS AND APRS NETWORKS AND ARE NOT UNDER
NATIONAL WEATHER SERVICE QUALITY CONTROL.

...OBSERVATIONS IN AND NEAR THE EASTERN PANHANDLE OF NEBRASKA...

CITY           SKY/WX    TMP DP  RH WIND       PRES   REMARKS
PINE RIDGE     CLOUDY    35  22  58 W10       29.60F WCI  27
CHADRON        CLOUDY    26  17  68 SW10      29.64S WCI  16
ALLIANCE       CLOUDY    19  15  84 W7        29.63R WCI  10
SIDNEY         CLOUDY    27  20  75 W10       29.66R WCI  17
CRESCENT LAKE    N/A     23  22  94 SE3         N/A
$$

...OBSERVATIONS IN NORTHERN NEBRASKA AND FAR SOUTHERN SOUTH DAKOTA...

CITY           SKY/WX    TMP DP  RH WIND       PRES   REMARKS
WINNER         FAIR      37  29  72 SW13G22   29.62F WCI  29
VALENTINE      CLOUDY    30  24  78 SW9       29.64S WCI  22
THEDFORD       CLEAR     31  30  94 SE3       29.67R
AINSWORTH      CLEAR     32  32 100 S8        29.66R WCI  25
O`NEILL        CLEAR     37  36  98 S8        29.69S WCI  30
ORD            CLEAR     36  34  92 S9        29.69F WCI  29
BROKEN BOW     FOG       36  36 100 S12       29.68S VSB 1/4 WCI  28
VALENTINE NWR    N/A     30  28  90 SW8G15      N/A  WCI  22
BUTTE            N/A     35  33  92 S12         N/A  WCI  27
HALSEY           N/A     34  33  96 SW5         N/A  WCI  30
SARGENT          N/A     32  23  69 CALM        N/A
CHAMBERS         N/A     35  34  97 CALM        N/A
EWING            N/A     38  36  94 S3          N/A
$$

...OBSERVATIONS IN SOUTHWEST NEBRASKA AND FAR NORTHEAST COLORADO...

CITY           SKY/WX    TMP DP  RH WIND       PRES   REMARKS
HOLYOKE        FAIR      19  14  79 W7        29.66S WCI  10
IMPERIAL       CLOUDY    27  24  89 NW6       29.66F WCI  20
OGALLALA       CLOUDY    21  18  91 W6        29.67R WCI  13
NORTH PLATTE   FOG       33  32  96 CALM      29.69S VSB 1/4
MCCOOK         FOG       33  33 100 S6        29.69S VSB 1/4 WCI  28
LEXINGTON      FOG       38  37  96 S8        29.70S VSB 1/2 WCI  32
STAPLETON        N/A     31  30  96 CALM        N/A
GOTHENBURG       N/A     37  36  98 CALM        N/A
CALLAWAY         N/A     35  34  96 SW8         N/A  WCI  28
$$

...OBSERVATIONS IN CENTRAL LINCOLN COUNTY AREA...

CITY           SKY/WX    TMP DP  RH WIND       PRES   REMARKS
N.P. AIRPORT   FOG       33  32  96 CALM      29.69S VSB 1/4
N.P. DOWNTOWN    N/A     32  32  99 CALM        N/A
N.P. SOUTHEAST   N/A     32  32 100 CALM        N/A
N.P. HILLCREST   N/A     32  31  96 CALM        N/A
$$

...SOME OBSERVATIONS FROM AROUND THE REGION...

CITY           SKY/WX    TMP DP  RH WIND       PRES   REMARKS
LARAMIE        CLOUDY     7   5  91 N3        29.75S
CHEYENNE       CLOUDY    36  15  42 W15       29.64F WCI  27
DENVER         CLOUDY    33  14  45 SW13      29.66S WCI  24
AKRON          CLOUDY    27  18  69 W13       29.65S WCI  16
SCOTTSBLUFF    CLOUDY    27  20  75 NW7       29.64S WCI  19
RAPID CITY     CLOUDY    28  20  71 NW8       29.55F WCI  20
BISMARCK       CLOUDY    14   8  77 E3        29.57F
PIERRE         CLOUDY    15  12  88 CALM      29.59S
SIOUX FALLS    CLEAR     36  34  92 S10       29.75R WCI  28
OMAHA          PTCLDY    37  32  82 S10       29.85F WCI  30
GRAND ISLAND   CLEAR     36  35  96 S12       29.74F WCI  28
KANSAS CITY    CLOUDY    43  37  79 SE7       29.89F
WICHITA        CLOUDY    43  40  89 S13       29.82F
OKLAHOMA CITY  CLOUDY    48  46  93 S14       29.86F
DALLAS         CLOUDY    48  47  96 SW8       29.91S FOG
AMARILLO       CLEAR     41  34  76 SW18      29.69F
DODGE CITY     CLOUDY    45  43  93 S16       29.71F
GOODLAND       CLOUDY    28  25  88 W6        29.65S WCI  22
$$




USA.gov is the U.S. government's official web portal to all federal, state and local government web resources and services.